Location: Gro�sch�nbrunn
(49.5760°N, 11.8868°E)
Time: 15:30:46
(UTC+00:00)

Cosmos 1867 - Pass Details

Date: 18 September 2020
Orbit: 777 x 799 km, 65.0° (Epoch: 27 October)

Event Time Altitude Azimuth Distance (km) Brightness Sun altitude
Rises 18:25:34 0° 320° (NW) 3,314 7.8 -11.5°
Reaches altitude 10° 18:28:00 10° 319° (NW) 2,381 7.0 -11.9°
Maximum altitude 18:33:30 82° 234° (SW) 813 3.7 -12.8°
Enters shadow 18:38:36 12° 147° (SSE) 2,231 5.4 -13.6°
